Hourly Weather Natal

Today, 25 September, Friday

Time Temperature Precipitation Wind Pressure Humidity
00:00 +26°C° 0 mm 6 mps 761 mmHg 79%
01:00 +26°C° 0 mm 5 mps 761 mmHg 80%
02:00 +25°C° 0 mm 5 mps 761 mmHg 81%
03:00 +25°C° 0 mm 5 mps 760 mmHg 82%
04:00 +25°C° 0 mm 4 mps 760 mmHg 83%
05:00 +25°C° 0.1 mm 5 mps 760 mmHg 83%
06:00 +25°C° 0.1 mm 5 mps 761 mmHg 83%
07:00 +26°C° 0.1 mm 5 mps 761 mmHg 84%
08:00 +27°C° 0.1 mm 5 mps 761 mmHg 78%
09:00 +28°C° 0.1 mm 6 mps 762 mmHg 73%
10:00 +29°C° 0.1 mm 7 mps 762 mmHg 68%
11:00 +29°C° 0 mm 7 mps 761 mmHg 65%
12:00 +30°C° 0 mm 7 mps 761 mmHg 62%
13:00 +30°C° 0 mm 7 mps 761 mmHg 59%
14:00 +30°C° 0 mm 7 mps 760 mmHg 60%
15:00 +30°C° 0 mm 7 mps 759 mmHg 61%
16:00 +29°C° 0 mm 7 mps 759 mmHg 62%
17:00 +29°C° 0 mm 6 mps 759 mmHg 66%
18:00 +28°C° 0 mm 6 mps 759 mmHg 70%
19:00 +27°C° 0 mm 6 mps 760 mmHg 74%
20:00 +27°C° 0 mm 6 mps 760 mmHg 75%
21:00 +26°C° 0 mm 6 mps 761 mmHg 75%
22:00 +26°C° 0 mm 6 mps 761 mmHg 76%
23:00 +26°C° 0 mm 6 mps 761 mmHg 77%

Tomorrow, 26 September, Saturday

Time Temperature Precipitation Wind Pressure Humidity
00:00 +26°C° 0 mm 6 mps 761 mmHg 78%
01:00 +26°C° 0 mm 6 mps 761 mmHg 79%
02:00 +26°C° 0 mm 5 mps 760 mmHg 80%
03:00 +25°C° 0 mm 5 mps 760 mmHg 81%
04:00 +25°C° 0 mm 5 mps 759 mmHg 82%
05:00 +25°C° 0 mm 5 mps 760 mmHg 80%
06:00 +26°C° 0 mm 5 mps 760 mmHg 79%
07:00 +26°C° 0 mm 5 mps 760 mmHg 77%
08:00 +27°C° 0 mm 5 mps 761 mmHg 71%
09:00 +29°C° 0 mm 6 mps 761 mmHg 65%
10:00 +30°C° 0 mm 6 mps 761 mmHg 58%
11:00 +32°C° 0 mm 6 mps 760 mmHg 57%
12:00 +32°C° 0 mm 6 mps 760 mmHg 56%
13:00 +32°C° 0 mm 6 mps 759 mmHg 54%
14:00 +32°C° 0 mm 6 mps 759 mmHg 56%
15:00 +32°C° 0 mm 6 mps 758 mmHg 58%
16:00 +30°C° 0 mm 6 mps 758 mmHg 60%
17:00 +29°C° 0 mm 5 mps 758 mmHg 66%
18:00 +28°C° 0 mm 5 mps 758 mmHg 71%
19:00 +27°C° 0 mm 5 mps 759 mmHg 77%
20:00 +26°C° 0 mm 5 mps 759 mmHg 80%
21:00 +26°C° 0 mm 5 mps 759 mmHg 82%
22:00 +26°C° 0 mm 5 mps 759 mmHg 84%
23:00 +26°C° 0 mm 5 mps 759 mmHg 86%

Day after tomorrow, 27 September, Sunday

Time Temperature Precipitation Wind Pressure Humidity
00:00 +25°C° 0 mm 5 mps 759 mmHg 87%
01:00 +25°C° 0 mm 5 mps 759 mmHg 89%
02:00 +26°C° 0.1 mm 5 mps 758 mmHg 88%
03:00 +26°C° 0.1 mm 5 mps 758 mmHg 87%
04:00 +26°C° 0.1 mm 5 mps 758 mmHg 86%
05:00 +26°C° 0.1 mm 5 mps 758 mmHg 86%
06:00 +26°C° 0.1 mm 5 mps 758 mmHg 86%
07:00 +26°C° 0.1 mm 5 mps 758 mmHg 86%
08:00 +28°C° 0.2 mm 5 mps 759 mmHg 79%
09:00 +29°C° 0.2 mm 6 mps 759 mmHg 72%
10:00 +30°C° 0.2 mm 7 mps 759 mmHg 66%
11:00 +32°C° 0 mm 7 mps 759 mmHg 63%
12:00 +32°C° 0 mm 7 mps 758 mmHg 60%
13:00 +33°C° 0 mm 7 mps 758 mmHg 57%
14:00 +32°C° 0 mm 7 mps 758 mmHg 59%
15:00 +32°C° 0 mm 7 mps 757 mmHg 61%
16:00 +32°C° 0 mm 7 mps 757 mmHg 63%
17:00 +29°C° 0 mm 6 mps 757 mmHg 67%
18:00 +28°C° 0 mm 5 mps 758 mmHg 72%
19:00 +27°C° 0 mm 5 mps 758 mmHg 77%
20:00 +27°C° 0 mm 5 mps 758 mmHg 79%
21:00 +27°C° 0 mm 5 mps 759 mmHg 81%
22:00 +26°C° 0 mm 5 mps 759 mmHg 84%
23:00 +26°C° 0.1 mm 5 mps 759 mmHg 85%

28 September, Monday

Time Temperature Precipitation Wind Pressure Humidity
00:00 +26°C° 0.1 mm 5 mps 759 mmHg 86%
01:00 +26°C° 0.1 mm 5 mps 758 mmHg 88%
02:00 +26°C° 0.1 mm 5 mps 758 mmHg 87%
03:00 +26°C° 0.1 mm 5 mps 758 mmHg 87%
04:00 +26°C° 0.1 mm 5 mps 757 mmHg 87%
05:00 +26°C° 0 mm 5 mps 758 mmHg 85%
06:00 +26°C° 0 mm 5 mps 758 mmHg 84%
07:00 +27°C° 0 mm 5 mps 758 mmHg 83%
08:00 +28°C° 0 mm 5 mps 758 mmHg 75%
09:00 +30°C° 0 mm 6 mps 759 mmHg 68%
10:00 +32°C° 0 mm 6 mps 759 mmHg 60%
11:00 +33°C° 0.1 mm 7 mps 758 mmHg 60%
12:00 +33°C° 0.1 mm 7 mps 758 mmHg 60%
13:00 +33°C° 0.1 mm 7 mps 757 mmHg 61%
14:00 +33°C° 0.1 mm 7 mps 757 mmHg 62%
15:00 +32°C° 0.1 mm 7 mps 757 mmHg 63%
16:00 +32°C° 0.1 mm 7 mps 756 mmHg 63%
17:00 +30°C° 0.1 mm 7 mps 757 mmHg 69%
18:00 +29°C° 0.1 mm 6 mps 757 mmHg 74%
19:00 +28°C° 0.1 mm 6 mps 758 mmHg 79%
20:00 +27°C° 0.1 mm 6 mps 758 mmHg 81%
21:00 +27°C° 0.1 mm 5 mps 758 mmHg 82%
22:00 +27°C° 0.1 mm 5 mps 759 mmHg 83%
23:00 +27°C° 0.2 mm 5 mps 758 mmHg 84%

29 September, Tuesday

Time Temperature Precipitation Wind Pressure Humidity
00:00 +27°C° 0.2 mm 5 mps 758 mmHg 85%
01:00 +27°C° 0.2 mm 5 mps 758 mmHg 86%
02:00 +26°C° 0.1 mm 5 mps 758 mmHg 86%
03:00 +26°C° 0.1 mm 5 mps 757 mmHg 86%
04:00 +26°C° 0.1 mm 5 mps 757 mmHg 86%
05:00 +26°C° 0 mm 5 mps 758 mmHg 85%
06:00 +27°C° 0 mm 5 mps 758 mmHg 83%
07:00 +27°C° 0 mm 5 mps 759 mmHg 82%
08:00 +28°C° 0.2 mm 6 mps 759 mmHg 78%
09:00 +29°C° 0.2 mm 6 mps 759 mmHg 74%
10:00 +29°C° 0.2 mm 7 mps 760 mmHg 70%
11:00 +30°C° 0 mm 7 mps 759 mmHg 66%
12:00 +32°C° 0 mm 8 mps 759 mmHg 62%
13:00 +33°C° 0 mm 8 mps 758 mmHg 57%
14:00 +32°C° 0 mm 7 mps 758 mmHg 58%
15:00 +32°C° 0 mm 7 mps 758 mmHg 60%
16:00 +30°C° 0 mm 7 mps 757 mmHg 61%
17:00 +29°C° 0 mm 6 mps 758 mmHg 65%
18:00 +29°C° 0 mm 6 mps 758 mmHg 70%
19:00 +28°C° 0 mm 6 mps 758 mmHg 75%
20:00 +27°C° 0 mm 6 mps 759 mmHg 77%
21:00 +27°C° 0 mm 6 mps 759 mmHg 78%
22:00 +27°C° 0 mm 6 mps 759 mmHg 79%
23:00 +27°C° 0.1 mm 5 mps 759 mmHg 80%

30 September, Wednesday

Time Temperature Precipitation Wind Pressure Humidity
00:00 +27°C° 0.1 mm 5 mps 759 mmHg 80%
01:00 +27°C° 0.1 mm 5 mps 759 mmHg 80%
02:00 +26°C° 0.2 mm 5 mps 759 mmHg 82%
03:00 +26°C° 0.2 mm 5 mps 758 mmHg 83%
04:00 +26°C° 0.2 mm 6 mps 758 mmHg 85%
05:00 +26°C° 0.2 mm 6 mps 758 mmHg 83%
06:00 +27°C° 0.2 mm 5 mps 759 mmHg 82%
07:00 +27°C° 0.2 mm 5 mps 759 mmHg 81%
08:00 +28°C° 0.1 mm 6 mps 759 mmHg 74%
09:00 +30°C° 0.1 mm 6 mps 760 mmHg 68%
10:00 +32°C° 0.1 mm 7 mps 760 mmHg 61%
11:00 +32°C° 0 mm 7 mps 760 mmHg 59%
12:00 +33°C° 0 mm 7 mps 759 mmHg 56%
13:00 +33°C° 0 mm 7 mps 759 mmHg 54%
14:00 +33°C° 0 mm 7 mps 758 mmHg 56%
15:00 +32°C° 0 mm 7 mps 758 mmHg 58%
16:00 +32°C° 0 mm 7 mps 758 mmHg 60%
17:00 +30°C° 0 mm 7 mps 758 mmHg 65%
18:00 +29°C° 0 mm 6 mps 758 mmHg 69%
19:00 +28°C° 0 mm 6 mps 759 mmHg 74%
20:00 +27°C° 0 mm 6 mps 759 mmHg 76%
21:00 +27°C° 0 mm 6 mps 759 mmHg 78%
22:00 +27°C° 0 mm 6 mps 760 mmHg 80%
23:00 +27°C° 0 mm 6 mps 759 mmHg 81%
Show more